www.pogodaiklimat.ru

Погода и климат >> Архив погоды >> Фиджи >> Ясава-и-Рара


ПОГОДА в Ясава-и-Рара

  • Прогноз погоды в Ясава-и-Рара
  • Монитор погоды в Ясава-и-Рара

АРХИВ ПОГОДЫ в Ясава-и-Рара

Время (UTC), дата Ветер
(напр.,м/с)
 
Видим.   Явления Облачность Т
(С)
Тd
(С)
f
(%)
Тe
(С)
Тes
(С)
Комфортность P
(гПа)
Po
(гПа)
Тmin
(С)
Tmax
(С)
R
(мм)
R24
(мм)
S
(см)
00 12.04 СВ 5 н/о н/о +33.1 +26.8 70 +51 +51 опасность
перегрева
1010.8 1004.8 +26.2
03 12.04 В 4 н/о н/о +32.0 +26.1 71 +48 +48 опасность
перегрева
1008.7 1002.7
06 12.04 СВ 3 н/о н/о +27.7 +24.6 83 +39 +39 очень
душно
1009.3 1003.2
09 12.04 В 4 н/о н/о +27.3 +25.6 90 +40 +40 очень
душно
1010.7 1004.6
12 12.04 В 5 н/о н/о +27.1 +25.0 88 +39 +39 очень
душно
1010.1 1004.0 +34.3
15 12.04 В 7 н/о н/о +27.1 +25.5 91 +40 +40 очень
душно
1008.4 1002.3
00 13.04 СВ 5 н/о н/о +31.2 +26.2 75 +47 +47 опасность
перегрева
1008.5 1002.5 +27.0
03 13.04 С 3 н/о н/о +24.0 +23.4 96 +32 +32 очень
душно
1008.3 1002.1
06 13.04 СВ 6 н/о н/о +23.8 +23.3 97 +32 +32 очень
душно
1008.6 1002.4 25
09 13.04 СВ 3 н/о н/о +24.8 +23.9 95 +34 +34 очень
душно
1009.8 1003.6
12 13.04 СВ 2 н/о н/о +25.1 +24.5 96 +35 +35 очень
душно
1008.7 1002.5 +34.5 1
15 13.04 СВ 3 н/о н/о +25.3 +24.9 98 +36 +36 очень
душно
1006.9 1000.7
18 13.04 СВ 4 н/о н/о +25.6 +25.2 98 +37 +37 очень
душно
1006.4 1000.3 3
21 13.04 СВ 6 н/о н/о +27.0 +25.6 92 +40 +40 очень
душно
1007.7 1001.6
00 14.04 С 10 н/о н/о +28.6 +27.4 93 +46 +46 опасность
перегрева
1006.4 1000.3 +23.5 0.5
03 14.04 С 6 н/о н/о +29.8 +26.4 82 +46 +46 опасность
перегрева
1004.3 998.3
06 14.04 С 6 н/о н/о +27.7 +25.7 89 +41 +41 опасность
перегрева
1004.9 998.8
09 14.04 С 5 н/о н/о +26.8 +25.9 95 +40 +40 очень
душно
1006.7 1000.6
12 14.04 З 5 н/о н/о +24.6 +24.3 98 +34 +34 очень
душно
1006.0 999.8 +32.2 21
15 14.04 З 3 н/о н/о +25.3 +24.8 97 +36 +36 очень
душно
1004.5 998.4
18 14.04 Ю 2 н/о н/о +25.5 +24.5 94 +36 +36 очень
душно
1005.1 999.0 1
21 14.04 ЮЗ 3 н/о н/о +28.8 +26.2 86 +44 +44 опасность
перегрева
1006.8 1000.7
00 15.04 ЮЗ 3 н/о н/о +31.2 +26.8 78 +49 +49 опасность
перегрева
1005.9 999.9 +24.4
03 15.04 З 2 н/о н/о +31.3 +25.7 72 +46 +46 опасность
перегрева
1004.2 998.2
06 15.04 СЗ 2 н/о н/о +27.7 +24.0 80 +38 +38 очень
душно
1005.1 999.0
09 15.04 СЗ 1 н/о н/о +27.3 +23.8 81 +37 +37 очень
душно
1007.2 1001.1
12 15.04 С 3 н/о н/о +26.8 +24.6 88 +38 +38 очень
душно
1007.8 1001.7 +32.1
15 15.04 С 2 н/о н/о +26.3 +24.4 89 +37 +37 очень
душно
1006.7 1000.6
18 15.04 СВ 2 н/о н/о +26.4 +25.0 92 +38 +38 очень
душно
1007.3 1001.2
21 15.04 СВ 3 н/о н/о +30.6 +27.6 84 +49 +49 опасность
перегрева
1009.5 1003.4
00 16.04 С 2 н/о н/о +29.8 +27.2 86 +47 +47 опасность
перегрева
1008.6 1002.5 +25.7
03 16.04 ЮВ 2 н/о н/о +30.7 +27.1 81 +48 +48 опасность
перегрева
1006.8 1000.8
06 16.04 В 3 н/о н/о +26.6 +26.1 97 +40 +40 очень
душно
1007.9 1001.8 5
09 16.04 СВ 4 н/о н/о +26.8 +26.3 97 +41 +41 опасность
перегрева
1009.6 1003.5
12 16.04 СВ 4 н/о н/о +26.1 +25.4 96 +38 +38 очень
душно
1009.3 1003.1 +33.5 3
15 16.04 В 4 н/о н/о +26.1 +25.8 98 +38 +38 очень
душно
1008.4 1002.3
18 16.04 В 8 н/о н/о +26.5 +25.3 93 +38 +38 очень
душно
1008.7 1002.6 47
21 16.04 В 7 н/о н/о +30.2 +27.9 88 +50 +50 опасность
перегрева
1010.6 1004.5
00 17.04 СВ 7 н/о н/о +31.6 +28.4 83 +53 +53 опасность
перегрева
1009.8 1003.8 +25.1
00 18.04 В 4 н/о н/о +32.4 +28.5 80 +54 +54 опасность
перегрева
1011.3 1005.3 +26.0
03 18.04 СВ 5 н/о н/о +31.0 +27.3 81 +49 +49 опасность
перегрева
1009.3 1003.2
06 18.04 СВ 4 н/о н/о +28.0 +26.2 90 +42 +42 опасность
перегрева
1010.0 1003.9
09 18.04 В 2 н/о н/о +27.6 +25.8 90 +41 +41 опасность
перегрева
1012.3 1006.2
12 18.04 СВ 6 н/о н/о +26.9 +25.8 94 +40 +40 очень
душно
1012.3 1006.1 +33.8
15 18.04 СВ 4 н/о н/о +26.3 +25.1 93 +38 +38 очень
душно
1010.6 1004.4
18 18.04 В 3 н/о н/о +26.4 +25.3 94 +38 +38 очень
душно
1010.5 1004.3
21 18.04 В 4 н/о н/о +29.3 +27.1 88 +46 +46 опасность
перегрева
1012.3 1006.2

 

Местоположение метеостанции Ясава-и-Рара (Фиджи): широта -16.70 долгота 177.58 высота над уровнем моря 50 м.

В архиве по умолчанию представлена погода в Ясава-и-Рара за последнюю неделю. Архивные данные за месяц целиком и за предыдущие месяцы, начиная с января 2011 года, Вы можете получить, выбрав интересующий диапазон дат из раскрывающегося списка и нажав кнопку "Ввод!".


*Определитесь, кто Вы:
робот инопланетянин человек

Внимание! Время в таблицах - всемирное. Для получения местного времени необходимо прибавить поправку, которая равна 12 ч.

Смотрите также архив погоды в соседних городах и на ближайших метеорологических станциях:

Погода на Острове Вива (Фиджи) (88 км)
Погода в Ракираки (Фиджи) (99 км)
Погода в Нанди (Фиджи) (118 км)
Погода в Нэбаууолу (Фиджи) (124 км)
Погода на Вануа Мбалаву (Фиджи) (155 км)
Погода в Наусори (Фиджи) (183 км)
Погода в Сигатоке (Фиджи) (184 км)
Погода в Ламбасе (Фиджи) (198 км)
Погода на Вануа Леву (Фиджи) (264 км)
Погода в Вьюнисея (Фиджи) (268 км)

Пояснения к столбцам:

Ветер - указаны скорость ветра в м/с - средняя за 10 мин, порывы в срок и между сроками (в фигурных скобках) и направление, откуда дует ветер: С - северный, СВ - северо-восточный, В - восточный, ЮВ - юго-восточный, Ю - южный, ЮЗ - юго-западный, З - западный, СЗ - северо-западный.
Видимость - горизонтальная дальность видимости в метрах или километрах. При видимости от 1 до 10 км при отсутствии осадков обычно наблюдается дымка, при ухудшении видимости до 1 км и менее - туман. В сухую погоду видимость может ухудшаться дымом, пылью или мглою.
Явления - указаны атмосферные явления, наблюдавшиеся в срок или в последний час перед сроком; фигурными скобками обозначены явления, наблюдавшиеся между сроками (за 1-3 часа до срока); квадратными скобками обозначены град или гололедные отложения с указанием их диаметра в мм.
Облачность - указаны через наклонную черту общая и нижняя облачность в баллах и высота нижней границы облаков в метрах; квадратными скобками обозначены формы облаков: Ci - перистые, Cs - перисто-слоистые, Cc - перисто-кучевые, Ac - высококучевые, As - высокослоистые, Sc - слоисто-кучевые, Ns - слоисто-дождевые, Cu - кучевые, Cb - кучево-дождевые. Подробнее классификацию облаков см. в Атласе облаков (PDF).
T - Температура воздуха - температура, измеренная на высоте 2 м над землей.
Td - Температура точки росы - температура, при понижении до которой содержащийся в воздухе водяной пар достигнет насыщения.
f - Относительная влажность воздуха - влажноcть воздуха, измеренная на высоте 2 м над землей.
Te - Эффективная температура - температура, которую ощущает одетый по сезону человек в тени. Характеристика душности погоды. При расчете учитывается влияние влажности воздуха и скорости ветра на теплоощущения человека.
Tes - Эффективная температура на солнце - температура, которую ощущает человек, с поправкой на солнечный нагрев. Характеристика знойности погоды. Зависит от высоты солнца над горизонтом, облачности и скорости ветра. Ночью, в пасмурную погоду, а также при ветре 12 м/с и более поправка равна нулю.
P - Атмосферное давление - приведенное к уровню моря атмосферное давление.
Po - Атмосферное давление - измеренное на уровне метеостанции атмосферное давление.
Tmin - Минимальная температура - минимум температуры воздуха на высоте 2 м над землей.
Tmax - Максимальная температура - максимум температуры воздуха на высоте 2 м над землей.
R - Количество осадков - Количество выпавших осадков за период времени, мм. При наведении курсора мыши на число - период времени, за который выпало указанное количество осадков.
R24 - Количество осадков - Количество выпавших осадков за 24 часа, мм.
S - Снежный покров - Высота снежного покрова, см. При наведении курсора мыши на число - состояние снежного покрова и степень покрытия местности в баллах.